Location: Bonny Doon Airfield
(37.0704°N, 122.1252°W)
Time: 02:40:25
(UTC-07:00)

Envisat - Pass Details

Date: 15 October 2017
Orbit: 764 x 766 km, 98.2° (Epoch: 23 October)

Event Time Altitude Azimuth Distance (km) Brightness Sun altitude
Exits shadow 21:43:41 20° 317° (NW) 1,738 5.3 -38.7°
Drops below altitude 10° 21:45:22 10° 329° (NNW) 2,306 5.9 -39.0°
Sets 21:47:52 0° 338° (NNW) 3,236 6.7 -39.5°
